Location: Mentone
(34.5413°N, 85.5351°W)
Time: 21:46:01
(UTC-05:00)

Cosmos 2150 Rocket - Visible Passes

Search period start: 30 June 2016 00:00
Search period end: 10 July 2016 00:00
Orbit: 749 x 809 km, 74.0° (Epoch: 30 June)

Date Brightness Start Highest point End Pass type
(mag) Time Alt. Az. Time Alt. Az. Time Alt. Az.
30 Jun 4.0 21:20:52 10° S 21:26:16 74° ESE 21:31:44 10° NNE visible
30 Jun 6.9 23:06:44 10° W 23:09:08 13° WNW 23:11:32 10° NNW visible
01 Jul 4.4 20:47:26 10° S 20:52:34 44° ESE 20:57:44 10° NNE visible
01 Jul 6.5 22:31:03 10° WSW 22:35:02 21° WNW 22:39:05 10° NNW visible
02 Jul 5.8 21:56:13 10° SW 22:01:03 32° WNW 22:05:57 10° N visible
03 Jul 5.0 21:21:52 10° SSW 21:27:09 52° WNW 21:32:30 10° N visible
04 Jul 4.2 20:47:54 10° SSW 20:53:21 86° WNW 20:58:50 10° NNE visible
05 Jul 7.0 21:58:58 10° W 22:02:17 16° WNW 22:05:37 10° NNW visible
06 Jul 6.4 21:23:46 10° WSW 21:28:15 25° WNW 21:32:45 10° N visible
07 Jul 5.6 20:49:12 10° SW 20:54:19 40° WNW 20:59:27 10° N visible
09 Jul 7.3 05:07:43 10° NNE 05:10:58 16° ENE 05:14:10 10° E visible
09 Jul 7.4 21:27:16 10° W 21:29:33 13° WNW 21:31:51 10° NNW visible
